Menu Close Menu
Station Historical Data
Daily Summary for November 21, 2017 Units:  English    Metric   Both
« Previous Day
Next Day »
Daily Weekly Monthly Yearly Custom
  High: Low: Average:
Temperature: 64.7 °F 41.4 °F 52.7 °F
Dew Point: 52.4 °F 34.2 °F 44.4 °F
Humidity: 90% 61% 74%
Wind Speed: 5.8mph 0.0mph 0.9mph
Wind Gust: 6.0mph - -
Wind- - WNW
Pressure: 30.25 in 30.04 in -
Precipitation: 0.00 in    
Historical Graphs
 
 
Tabular Data for November 21, 2017
Time Temperature Dew Point Pressure Wind Wind Speed Wind Gust Humidity Rainfall Rate (Hourly) solar Conditions
00:04 41.9 °F 34.6 °F 30.25 in Calm     75% 0.00 in WeatherDisplay:10.37 W/m2 CLR
00:09 41.8 °F 34.5 °F 30.24 in Calm     75% 0.00 in WeatherDisplay:10.37 W/m2 CLR
00:19 41.7 °F 34.4 °F 30.24 in Calm     75% 0.00 in WeatherDisplay:10.37 W/m2 CLR
00:29 41.6 °F 34.6 °F 30.24 in Calm     76% 0.00 in WeatherDisplay:10.37 W/m2 CLR
00:34 41.9 °F 34.9 °F 30.24 in Calm     76% 0.00 in WeatherDisplay:10.37 W/m2 CLR
00:39 42.0 °F 34.6 °F 30.24 in Calm     75% 0.00 in WeatherDisplay:10.37 W/m2 CLR
00:45 42.1 °F 34.4 °F 30.24 in Calm     74% 0.00 in WeatherDisplay:10.37 W/m2 CLR
00:50 42.1 °F 34.4 °F 30.24 in WNW 1.2 mph   74% 0.00 in WeatherDisplay:10.37 W/m2 CLR
00:55 42.1 °F 34.4 °F 30.24 in WNW 1.2 mph   74% 0.00 in WeatherDisplay:10.37 W/m2 CLR
01:05 41.9 °F 34.6 °F 30.23 in Calm     75% 0.00 in WeatherDisplay:10.37 W/m2 SCT
01:10 41.8 °F 34.5 °F 30.23 in Calm     75% 0.00 in WeatherDisplay:10.37 W/m2 SCT
01:15 41.7 °F 34.4 °F 30.23 in Calm     75% 0.00 in WeatherDisplay:10.37 W/m2 SCT
01:20 41.6 °F 34.3 °F 30.23 in Calm     75% 0.00 in WeatherDisplay:10.37 W/m2 SCT
01:26 41.5 °F 34.5 °F 30.23 in Calm     76% 0.00 in WeatherDisplay:10.37 W/m2 SCT
01:31 41.4 °F 34.4 °F 30.23 in Calm     76% 0.00 in WeatherDisplay:10.37 W/m2 SCT
01:36 41.5 °F 34.2 °F 30.23 in Calm     75% 0.00 in WeatherDisplay:10.37 W/m2 SCT
01:41 41.7 °F 34.4 °F 30.22 in Calm     75% 0.00 in WeatherDisplay:10.37 W/m2 SCT
01:46 41.7 °F 34.4 °F 30.22 in Calm     75% 0.00 in WeatherDisplay:10.37 W/m2 SCT
01:51 41.7 °F 34.4 °F 30.22 in Calm     75% 0.00 in WeatherDisplay:10.37 W/m2 SCT
01:56 41.8 °F 34.5 °F 30.22 in Calm     75% 0.00 in WeatherDisplay:10.37 W/m2 SCT
02:01 41.8 °F 34.5 °F 30.22 in Calm     75% 0.00 in WeatherDisplay:10.37 W/m2 SCT
02:06 41.9 °F 34.6 °F 30.22 in Calm     75% 0.00 in WeatherDisplay:10.37 W/m2 SCT
02:11 41.9 °F 34.9 °F 30.22 in Calm     76% 0.00 in WeatherDisplay:10.37 W/m2 SCT
02:16 41.9 °F 34.6 °F 30.22 in Calm     75% 0.00 in WeatherDisplay:10.37 W/m2 SCT
02:21 41.9 °F 34.9 °F 30.21 in Calm     76% 0.00 in WeatherDisplay:10.37 W/m2 SCT
02:31 42.5 °F 34.8 °F 30.21 in Calm     74% 0.00 in WeatherDisplay:10.37 W/m2 SCT
02:36 42.7 °F 35.0 °F 30.21 in West 1.2 mph   74% 0.00 in WeatherDisplay:10.37 W/m2 SCT
02:41 42.6 °F 35.2 °F 30.21 in West 1.2 mph   75% 0.00 in WeatherDisplay:10.37 W/m2 SCT
02:51 42.7 °F 34.6 °F 30.21 in West 1.2 mph   73% 0.00 in WeatherDisplay:10.37 W/m2 SCT
02:56 42.8 °F 34.7 °F 30.21 in West 1.2 mph   73% 0.00 in WeatherDisplay:10.37 W/m2 SCT
03:06 42.8 °F 34.7 °F 30.21 in Calm     73% 0.00 in WeatherDisplay:10.37 W/m2 FEW
03:11 42.8 °F 34.7 °F 30.21 in Calm     73% 0.00 in WeatherDisplay:10.37 W/m2 FEW
03:17 42.8 °F 34.4 °F 30.21 in Calm     72% 0.00 in WeatherDisplay:10.37 W/m2 FEW
03:22 42.8 °F 34.4 °F 30.21 in West 1.2 mph   72% 0.00 in WeatherDisplay:10.37 W/m2 FEW
03:27 42.9 °F 34.5 °F 30.21 in West 1.2 mph   72% 0.00 in WeatherDisplay:10.37 W/m2 FEW
03:37 42.9 °F 34.5 °F 30.20 in West 1.2 mph 1.2 mph 72% 0.00 in WeatherDisplay:10.37 W/m2 FEW
03:42 43.0 °F 34.6 °F 30.20 in West 1.2 mph   72% 0.00 in WeatherDisplay:10.37 W/m2 FEW
03:52 43.1 °F 35.0 °F 30.20 in West 1.2 mph   73% 0.00 in WeatherDisplay:10.37 W/m2 FEW
04:03 43.3 °F 35.2 °F 30.20 in Calm     73% 0.00 in WeatherDisplay:10.37 W/m2 SCT
04:08 43.5 °F 35.4 °F 30.20 in Calm     73% 0.00 in WeatherDisplay:10.37 W/m2 SCT
04:18 43.9 °F 35.8 °F 30.19 in Calm     73% 0.00 in WeatherDisplay:10.37 W/m2 SCT
04:23 44.0 °F 35.9 °F 30.19 in Calm     73% 0.00 in WeatherDisplay:10.37 W/m2 BKN
04:28 44.0 °F 35.9 °F 30.20 in Calm     73% 0.00 in WeatherDisplay:10.37 W/m2 BKN
04:38 44.0 °F 36.2 °F 30.19 in Calm     74% 0.00 in WeatherDisplay:10.37 W/m2 BKN
04:43 43.9 °F 36.1 °F 30.19 in Calm     74% 0.00 in WeatherDisplay:10.37 W/m2 BKN
04:53 44.0 °F 36.6 °F 30.19 in Calm     75% 0.00 in WeatherDisplay:10.37 W/m2 BKN
05:03 44.2 °F 36.8 °F 30.19 in Calm     75% 0.00 in WeatherDisplay:10.37 W/m2 OVC
05:08 44.3 °F 36.9 °F 30.19 in Calm     75% 0.00 in WeatherDisplay:10.37 W/m2 OVC
05:14 44.4 °F 37.0 °F 30.19 in Calm     75% 0.00 in WeatherDisplay:10.37 W/m2 OVC
05:19 44.4 °F 37.3 °F 30.19 in Calm     76% 0.00 in WeatherDisplay:10.37 W/m2 OVC
05:29 44.3 °F 37.5 °F 30.19 in Calm     77% 0.00 in WeatherDisplay:10.37 W/m2 BKN
05:34 44.4 °F 37.6 °F 30.19 in West 1.2 mph 1.2 mph 77% 0.00 in WeatherDisplay:10.37 W/m2 BKN
05:39 44.5 °F 37.7 °F 30.19 in West 1.2 mph   77% 0.00 in WeatherDisplay:10.37 W/m2 BKN
05:44 44.6 °F 37.8 °F 30.19 in West 1.2 mph   77% 0.00 in WeatherDisplay:10.37 W/m2 BKN
05:49 44.7 °F 37.9 °F 30.19 in West 1.2 mph 1.2 mph 77% 0.00 in WeatherDisplay:10.37 W/m2 BKN
05:54 44.8 °F 37.7 °F 30.19 in West 1.2 mph 1.2 mph 76% 0.00 in WeatherDisplay:10.37 W/m2 BKN
06:09 45.1 °F 38.0 °F 30.19 in West 1.2 mph   76% 0.00 in WeatherDisplay:10.37 W/m2 BKN
06:14 45.1 °F 37.6 °F 30.19 in West 1.2 mph 1.2 mph 75% 0.00 in WeatherDisplay:10.37 W/m2 BKN
06:20 45.2 °F 38.1 °F 30.19 in Calm   1.0 mph 76% 0.00 in WeatherDisplay:10.37 W/m2 BKN
06:25 45.3 °F 37.8 °F 30.19 in Calm   1.0 mph 75% 0.00 in WeatherDisplay:10.37 W/m2 BKN
06:30 45.4 °F 37.9 °F 30.19 in West 1.2 mph   75% 0.00 in WeatherDisplay:10.37 W/m2 BKN
06:35 45.4 °F 37.6 °F 30.19 in West 1.2 mph   74% 0.00 in WeatherDisplay:10.37 W/m2 BKN
06:45 45.5 °F 37.7 °F 30.19 in WNW 1.2 mph   74% 0.00 in WeatherDisplay:10.37 W/m2 BKN
06:50 45.5 °F 37.7 °F 30.18 in West 1.2 mph   74% 0.00 in WeatherDisplay:10.37 W/m2 BKN
06:55 45.4 °F 37.6 °F 30.18 in West 1.2 mph 1.2 mph 74% 0.00 in WeatherDisplay:10.37 W/m2 BKN
07:00 45.3 °F 37.5 °F 30.18 in West 1.2 mph   74% 0.00 in WeatherDisplay:10.37 W/m2 BKN
07:05 45.1 °F 37.3 °F 30.18 in West 1.2 mph   74% 0.00 in WeatherDisplay:10.37 W/m2 BKN
07:10 45.0 °F 37.2 °F 30.18 in West 1.2 mph   74% 0.00 in WeatherDisplay:10.37 W/m2 BKN
07:15 44.9 °F 37.1 °F 30.18 in WNW 1.2 mph   74% 0.00 in WeatherDisplay:10.37 W/m2 BKN
07:17 44.9 °F 37.1 °F 30.18 in WNW 2.3 mph   74% 0.00 in WeatherDisplay:10.37 W/m2 BKN
07:23 44.7 °F 36.9 °F 30.18 in West 2.3 mph   74% 0.00 in WeatherDisplay:10.37 W/m2 BKN
07:28 44.7 °F 36.9 °F 30.18 in West 2.3 mph   74% 0.00 in WeatherDisplay:10.37 W/m2 BKN
07:33 44.6 °F 36.8 °F 30.18 in West 1.2 mph   74% 0.00 in WeatherDisplay:10.37 W/m2 BKN
07:48 44.4 °F 37.0 °F 30.18 in Calm     75% 0.00 in WeatherDisplay:10.37 W/m2 BKN
07:58 44.5 °F 37.1 °F 30.18 in Calm     75% 0.00 in WeatherDisplay:10.37 W/m2 BKN
08:03 44.5 °F 37.4 °F 30.18 in Calm     76% 0.00 in WeatherDisplay:10.37 W/m2 BKN
08:08 44.7 °F 37.6 °F 30.18 in Calm     76% 0.00 in WeatherDisplay:10.37 W/m2 BKN
08:18 45.6 °F 37.4 °F 30.18 in West 1.2 mph   73% 0.00 in WeatherDisplay:10.37 W/m2 BKN
08:23 46.0 °F 38.5 °F 30.18 in WNW 1.2 mph   75% 0.00 in WeatherDisplay:10.37 W/m2 BKN
08:29 46.2 °F 38.0 °F 30.18 in WNW 1.2 mph   73% 0.00 in WeatherDisplay:10.37 W/m2 BKN
08:34 46.5 °F 38.3 °F 30.18 in West 1.2 mph 1.2 mph 73% 0.00 in WeatherDisplay:10.37 W/m2 BKN
08:39 46.7 °F 38.5 °F 30.18 in West 1.2 mph 1.2 mph 73% 0.00 in WeatherDisplay:10.37 W/m2 BKN
08:49 47.4 °F 38.1 °F 30.19 in West 1.2 mph 1.2 mph 70% 0.00 in WeatherDisplay:10.37 W/m2 BKN
08:54 47.7 °F 38.8 °F 30.19 in WNW 1.2 mph 1.2 mph 71% 0.00 in WeatherDisplay:10.37 W/m2 BKN
09:04 48.2 °F 38.9 °F 30.19 in West 2.3 mph   70% 0.00 in WeatherDisplay:10.37 W/m2 BKN
09:09 48.5 °F 39.2 °F 30.19 in WNW 3.5 mph 3.5 mph 70% 0.00 in WeatherDisplay:10.37 W/m2 BKN
09:14 48.6 °F 38.9 °F 30.19 in West 3.5 mph 3.5 mph 69% 0.00 in WeatherDisplay:10.37 W/m2 BKN
09:19 48.6 °F 38.9 °F 30.19 in West 3.5 mph 3.5 mph 69% 0.00 in WeatherDisplay:10.37 W/m2 BKN
09:24 48.7 °F 39.4 °F 30.19 in West 3.5 mph 3.5 mph 70% 0.00 in WeatherDisplay:10.37 W/m2 BKN
09:29 49.1 °F 39.7 °F 30.19 in West 3.5 mph 3.5 mph 70% 0.00 in WeatherDisplay:10.37 W/m2 BKN
09:34 49.8 °F 40.0 °F 30.18 in West 4.6 mph 4.6 mph 69% 0.00 in WeatherDisplay:10.37 W/m2 BKN
09:40 50.2 °F 40.4 °F 30.18 in Calm   6.0 mph 69% 0.00 in WeatherDisplay:10.37 W/m2 BKN
09:45 51.0 °F 41.2 °F 30.18 in WNW 5.8 mph 5.8 mph 69% 0.00 in WeatherDisplay:10.37 W/m2 BKN
09:50 51.4 °F 41.6 °F 30.18 in West 3.5 mph   69% 0.00 in WeatherDisplay:10.37 W/m2 BKN
09:55 51.6 °F 41.8 °F 30.18 in West 3.5 mph 3.5 mph 69% 0.00 in WeatherDisplay:10.37 W/m2 BKN
10:05 52.3 °F 42.8 °F 30.18 in West 3.5 mph   70% 0.00 in WeatherDisplay:10.37 W/m2 BKN
10:10 52.6 °F 42.7 °F 30.17 in West 3.5 mph 3.5 mph 69% 0.00 in WeatherDisplay:10.37 W/m2 BKN
10:15 52.6 °F 43.1 °F 30.17 in West 3.5 mph   70% 0.00 in WeatherDisplay:10.37 W/m2 BKN
10:35 53.1 °F 43.9 °F 30.17 in West 2.3 mph 2.3 mph 71% 0.00 in WeatherDisplay:10.37 W/m2 BKN
10:40 54.3 °F 44.7 °F 30.17 in West 2.3 mph 2.3 mph 70% 0.00 in WeatherDisplay:10.37 W/m2 BKN
10:45 55.4 °F 44.6 °F 30.17 in WNW 2.3 mph 2.3 mph 67% 0.00 in WeatherDisplay:10.37 W/m2 BKN
10:56 56.2 °F 45.0 °F 30.16 in WNW 2.3 mph 2.3 mph 66% 0.00 in WeatherDisplay:10.37 W/m2 BKN
11:01 56.3 °F 45.5 °F 30.16 in WNW 2.3 mph 2.3 mph 67% 0.00 in WeatherDisplay:10.37 W/m2 BKN
11:04 56.3 °F 45.1 °F 30.16 in WNW 1.2 mph   66% 0.00 in WeatherDisplay:10.37 W/m2 BKN
11:09 56.3 °F 45.1 °F 30.16 in WNW 1.2 mph 1.2 mph 66% 0.00 in WeatherDisplay:10.37 W/m2 BKN
11:19 57.4 °F 46.1 °F 30.15 in WNW 1.2 mph 1.2 mph 66% 0.00 in WeatherDisplay:10.37 W/m2 BKN
11:24 57.7 °F 46.8 °F 30.15 in WNW 2.3 mph 2.3 mph 67% 0.00 in WeatherDisplay:10.37 W/m2 BKN
11:29 58.4 °F 47.9 °F 30.15 in WNW 2.3 mph   68% 0.00 in WeatherDisplay:10.37 W/m2 BKN
11:34 59.0 °F 48.4 °F 30.14 in WNW 2.3 mph 2.3 mph 68% 0.00 in WeatherDisplay:10.37 W/m2 BKN
11:39 59.1 °F 47.7 °F 30.14 in WNW 3.5 mph   66% 0.00 in WeatherDisplay:10.37 W/m2 BKN
11:44 59.3 °F 48.3 °F 30.14 in WNW 3.5 mph   67% 0.00 in WeatherDisplay:10.37 W/m2 BKN
11:54 59.6 °F 48.6 °F 30.13 in West 2.3 mph 2.3 mph 67% 0.00 in WeatherDisplay:10.37 W/m2 BKN
12:00 59.9 °F 48.9 °F 30.13 in WNW 2.3 mph   67% 0.00 in WeatherDisplay:10.37 W/m2 BKN
12:05 60.3 °F 48.9 °F 30.13 in Calm   1.0 mph 66% 0.00 in WeatherDisplay:10.37 W/m2 BKN
12:10 60.4 °F 49.0 °F 30.13 in Calm   2.0 mph 66% 0.00 in WeatherDisplay:10.37 W/m2 BKN
12:15 60.6 °F 49.2 °F 30.12 in NW 2.3 mph   66% 0.00 in WeatherDisplay:10.37 W/m2 BKN
12:20 61.2 °F 50.2 °F 30.12 in WNW 1.2 mph   67% 0.00 in WeatherDisplay:10.37 W/m2 BKN
12:30 62.7 °F 50.8 °F 30.11 in WNW 1.2 mph 1.2 mph 65% 0.00 in WeatherDisplay:10.37 W/m2 BKN
12:35 62.8 °F 50.9 °F 30.11 in West 1.2 mph 1.2 mph 65% 0.00 in WeatherDisplay:10.37 W/m2 BKN
12:40 63.4 °F 51.4 °F 30.11 in West 2.3 mph 2.3 mph 65% 0.00 in WeatherDisplay:10.37 W/m2 BKN
12:45 63.3 °F 50.9 °F 30.11 in WNW 2.3 mph   64% 0.00 in WeatherDisplay:10.37 W/m2 BKN
12:50 63.3 °F 50.9 °F 30.10 in WNW 2.3 mph 2.3 mph 64% 0.00 in WeatherDisplay:10.37 W/m2 BKN
12:55 62.9 °F 50.5 °F 30.10 in NW 2.3 mph 2.3 mph 64% 0.00 in WeatherDisplay:10.37 W/m2 BKN
13:06 62.7 °F 51.2 °F 30.10 in West 2.3 mph   66% 0.00 in WeatherDisplay:10.37 W/m2 BKN
13:11 63.3 °F 51.3 °F 30.10 in WNW 1.2 mph 1.2 mph 65% 0.00 in WeatherDisplay:10.37 W/m2 BKN
13:16 63.6 °F 50.8 °F 30.09 in WNW 3.5 mph 3.5 mph 63% 0.00 in WeatherDisplay:10.37 W/m2 BKN
13:21 63.5 °F 51.1 °F 30.09 in NW 3.5 mph 3.5 mph 64% 0.00 in WeatherDisplay:10.37 W/m2 BKN
13:31 63.6 °F 50.8 °F 30.09 in NW 2.3 mph 2.3 mph 63% 0.00 in WeatherDisplay:10.37 W/m2 BKN
13:41 63.2 °F 51.2 °F 30.09 in NW 2.3 mph   65% 0.00 in WeatherDisplay:10.37 W/m2 BKN
13:47 63.0 °F 51.0 °F 30.09 in NW 1.2 mph   65% 0.00 in WeatherDisplay:10.37 W/m2 BKN
13:52 63.1 °F 51.6 °F 30.08 in NW 1.2 mph   66% 0.00 in WeatherDisplay:10.37 W/m2 BKN
14:07 63.5 °F 51.5 °F 30.07 in WNW 1.2 mph   65% 0.00 in WeatherDisplay:10.37 W/m2 BKN
14:12 63.7 °F 51.3 °F 30.07 in NW 1.2 mph 1.2 mph 64% 0.00 in WeatherDisplay:10.37 W/m2 BKN
14:22 63.8 °F 51.4 °F 30.07 in WNW 2.3 mph   64% 0.00 in WeatherDisplay:10.37 W/m2 BKN
14:27 64.2 °F 51.8 °F 30.07 in West 2.3 mph 2.3 mph 64% 0.00 in WeatherDisplay:10.37 W/m2 BKN
14:32 64.5 °F 51.6 °F 30.06 in WSW 2.3 mph 2.3 mph 63% 0.00 in WeatherDisplay:10.37 W/m2 BKN
14:42 64.6 °F 51.3 °F 30.06 in WNW 1.2 mph 1.2 mph 62% 0.00 in WeatherDisplay:10.37 W/m2 BKN
14:47 64.7 °F 51.4 °F 30.06 in WNW 2.3 mph 2.3 mph 62% 0.00 in WeatherDisplay:10.37 W/m2 BKN
14:53 64.6 °F 50.8 °F 30.06 in NNW 2.3 mph   61% 0.00 in WeatherDisplay:10.37 W/m2 BKN
14:58 64.5 °F 51.2 °F 30.05 in NNW 2.3 mph 2.3 mph 62% 0.00 in WeatherDisplay:10.37 W/m2 BKN
15:08 64.4 °F 51.1 °F 30.06 in NW 1.2 mph 1.2 mph 62% 0.00 in WeatherDisplay:10.37 W/m2 BKN
15:13 64.5 °F 51.6 °F 30.05 in NW 1.2 mph   63% 0.00 in WeatherDisplay:10.37 W/m2 BKN
15:18 64.6 °F 51.3 °F 30.05 in West 1.2 mph   62% 0.00 in WeatherDisplay:10.37 W/m2 BKN
15:23 64.7 °F 51.4 °F 30.05 in WSW 1.2 mph   62% 0.00 in WeatherDisplay:10.37 W/m2 BKN
15:28 64.7 °F 51.8 °F 30.05 in WNW 1.2 mph   63% 0.00 in WeatherDisplay:10.37 W/m2 BKN
15:38 64.7 °F 51.4 °F 30.05 in WNW 1.2 mph 1.2 mph 62% 0.00 in WeatherDisplay:10.37 W/m2 BKN
15:43 64.7 °F 51.8 °F 30.05 in WNW 1.2 mph   63% 0.00 in WeatherDisplay:10.37 W/m2 BKN
15:53 64.6 °F 51.3 °F 30.05 in NNW 1.2 mph 1.2 mph 62% 0.00 in WeatherDisplay:10.37 W/m2 BKN
15:58 64.5 °F 52.0 °F 30.05 in NNW 1.2 mph   64% 0.00 in WeatherDisplay:10.37 W/m2 BKN
16:04 64.4 °F 52.4 °F 30.05 in NNW 1.2 mph   65% 0.00 in WeatherDisplay:10.37 W/m2 BKN
16:14 64.2 °F 51.8 °F 30.05 in Calm     64% 0.00 in WeatherDisplay:10.37 W/m2 BKN
16:19 64.2 °F 52.2 °F 30.05 in Calm     65% 0.00 in WeatherDisplay:10.37 W/m2 BKN
16:29 63.7 °F 52.1 °F 30.05 in Calm     66% 0.00 in WeatherDisplay:10.37 W/m2 BKN
16:34 63.4 °F 51.8 °F 30.05 in Calm     66% 0.00 in WeatherDisplay:10.37 W/m2 BKN
16:44 62.9 °F 52.2 °F 30.05 in Calm     68% 0.00 in WeatherDisplay:10.37 W/m2 BKN
16:49 62.7 °F 52.0 °F 30.05 in Calm     68% 0.00 in WeatherDisplay:10.37 W/m2 BKN
16:59 62.4 °F 52.1 °F 30.05 in Calm     69% 0.00 in WeatherDisplay:10.37 W/m2 BKN
17:04 62.2 °F 52.3 °F 30.05 in Calm     70% 0.00 in WeatherDisplay:10.37 W/m2 BKN
17:09 62.0 °F 52.1 °F 30.05 in Calm     70% 0.00 in WeatherDisplay:10.37 W/m2 BKN
17:15 61.7 °F 51.8 °F 30.05 in Calm     70% 0.00 in WeatherDisplay:10.37 W/m2 BKN
17:20 61.5 °F 52.0 °F 30.05 in Calm     71% 0.00 in WeatherDisplay:10.37 W/m2 BKN
17:25 61.2 °F 52.1 °F 30.04 in Calm     72% 0.00 in WeatherDisplay:10.37 W/m2 BKN
17:35 60.8 °F 51.7 °F 30.04 in Calm     72% 0.00 in WeatherDisplay:10.37 W/m2 BKN
17:40 60.6 °F 51.9 °F 30.05 in Calm     73% 0.00 in WeatherDisplay:10.37 W/m2 BKN
17:45 60.4 °F 51.7 °F 30.05 in Calm     73% 0.00 in WeatherDisplay:10.37 W/m2 BKN
17:50 60.2 °F 51.9 °F 30.04 in Calm     74% 0.00 in WeatherDisplay:10.37 W/m2 BKN
17:55 60.0 °F 51.7 °F 30.05 in Calm     74% 0.00 in WeatherDisplay:10.37 W/m2 BKN
18:00 59.9 °F 52.0 °F 30.05 in Calm     75% 0.00 in WeatherDisplay:10.37 W/m2 BKN
18:05 59.7 °F 51.8 °F 30.05 in Calm     75% 0.00 in WeatherDisplay:10.37 W/m2 BKN
18:10 59.5 °F 51.6 °F 30.05 in Calm     75% 0.00 in WeatherDisplay:10.37 W/m2 BKN
18:20 59.2 °F 51.6 °F 30.05 in Calm     76% 0.00 in WeatherDisplay:10.37 W/m2 CLR
18:25 59.1 °F 51.5 °F 30.05 in Calm     76% 0.00 in WeatherDisplay:10.37 W/m2 BKN
18:31 59.0 °F 51.8 °F 30.06 in Calm     77% 0.00 in WeatherDisplay:10.37 W/m2 BKN
18:36 58.9 °F 51.7 °F 30.05 in Calm     77% 0.00 in WeatherDisplay:10.37 W/m2 BKN
18:41 58.8 °F 51.6 °F 30.05 in Calm     77% 0.00 in WeatherDisplay:10.37 W/m2 BKN
18:51 58.5 °F 51.7 °F 30.06 in Calm     78% 0.00 in WeatherDisplay:10.37 W/m2 BKN
19:06 57.9 °F 51.4 °F 30.06 in Calm     79% 0.00 in WeatherDisplay:10.37 W/m2 BKN
19:11 57.8 °F 51.7 °F 30.06 in Calm     80% 0.00 in WeatherDisplay:10.37 W/m2 BKN
19:16 57.6 °F 51.5 °F 30.06 in Calm     80% 0.00 in WeatherDisplay:10.37 W/m2 BKN
19:21 57.5 °F 51.4 °F 30.06 in Calm     80% 0.00 in WeatherDisplay:10.37 W/m2 BKN
19:26 57.4 °F 51.6 °F 30.06 in Calm     81% 0.00 in WeatherDisplay:10.37 W/m2 BKN
19:31 57.2 °F 51.4 °F 30.06 in Calm     81% 0.00 in WeatherDisplay:10.37 W/m2 BKN
19:37 57.2 °F 51.4 °F 30.06 in Calm     81% 0.00 in WeatherDisplay:10.37 W/m2 BKN
19:47 56.9 °F 51.5 °F 30.07 in Calm     82% 0.00 in WeatherDisplay:10.37 W/m2 BKN
19:57 57.1 °F 51.7 °F 30.07 in Calm     82% 0.00 in WeatherDisplay:10.37 W/m2 BKN
20:02 57.3 °F 51.9 °F 30.07 in Calm     82% 0.00 in WeatherDisplay:10.37 W/m2 BKN
20:07 57.4 °F 51.9 °F 30.07 in Calm     82% 0.00 in WeatherDisplay:10.37 W/m2 BKN
20:17 57.4 °F 51.9 °F 30.06 in Calm     82% 0.00 in WeatherDisplay:10.37 W/m2 BKN
20:22 57.4 °F 51.9 °F 30.06 in Calm     82% 0.00 in WeatherDisplay:10.37 W/m2 BKN
20:32 57.1 °F 51.7 °F 30.06 in Calm     82% 0.00 in WeatherDisplay:10.37 W/m2 BKN
20:37 57.0 °F 51.6 °F 30.06 in Calm     82% 0.00 in WeatherDisplay:10.37 W/m2 BKN
20:42 56.6 °F 51.5 °F 30.06 in Calm     83% 0.00 in WeatherDisplay:10.37 W/m2 BKN
20:48 56.3 °F 51.5 °F 30.06 in Calm     84% 0.00 in WeatherDisplay:10.37 W/m2 BKN
20:58 56.1 °F 51.3 °F 30.07 in Calm     84% 0.00 in WeatherDisplay:10.37 W/m2 SCT
21:03 55.9 °F 51.1 °F 30.07 in Calm     84% 0.00 in WeatherDisplay:10.37 W/m2 SCT
21:08 55.7 °F 50.9 °F 30.07 in Calm     84% 0.00 in WeatherDisplay:10.37 W/m2 SCT
21:13 55.6 °F 51.2 °F 30.07 in Calm     85% 0.00 in WeatherDisplay:10.37 W/m2 SCT
21:18 55.5 °F 51.1 °F 30.07 in Calm     85% 0.00 in WeatherDisplay:10.37 W/m2 SCT
21:28 55.4 °F 51.3 °F 30.07 in Calm     86% 0.00 in WeatherDisplay:10.37 W/m2 SCT
21:33 55.4 °F 51.3 °F 30.07 in Calm     86% 0.00 in WeatherDisplay:10.37 W/m2 SCT
21:38 55.4 °F 51.3 °F 30.07 in Calm     86% 0.00 in WeatherDisplay:10.37 W/m2 SCT
21:43 55.3 °F 51.2 °F 30.08 in Calm     86% 0.00 in WeatherDisplay:10.37 W/m2 SCT
21:48 55.1 °F 50.7 °F 30.07 in Calm     85% 0.00 in WeatherDisplay:10.37 W/m2 SCT
21:53 54.9 °F 50.8 °F 30.07 in Calm     86% 0.00 in WeatherDisplay:10.37 W/m2 SCT
21:59 54.6 °F 50.5 °F 30.07 in Calm     86% 0.00 in WeatherDisplay:10.37 W/m2 SCT
22:04 54.2 °F 50.1 °F 30.07 in Calm     86% 0.00 in WeatherDisplay:10.37 W/m2 FEW
22:09 54.1 °F 50.3 °F 30.07 in Calm     87% 0.00 in WeatherDisplay:10.37 W/m2 FEW
22:14 53.9 °F 50.4 °F 30.07 in Calm     88% 0.00 in WeatherDisplay:10.37 W/m2 FEW
22:24 53.7 °F 50.2 °F 30.07 in Calm     88% 0.00 in WeatherDisplay:10.37 W/m2 FEW
22:44 52.9 °F 49.4 °F 30.06 in Calm     88% 0.00 in WeatherDisplay:10.37 W/m2 FEW
22:54 52.6 °F 49.4 °F 30.06 in Calm     89% 0.00 in WeatherDisplay:10.37 W/m2 FEW
22:59 52.4 °F 49.3 °F 30.06 in Calm     89% 0.00 in WeatherDisplay:10.37 W/m2 FEW
23:04 52.5 °F 49.7 °F 30.06 in Calm     90% 0.00 in WeatherDisplay:10.37 W/m2 BKN
23:09 52.8 °F 49.9 °F 30.06 in Calm     90% 0.00 in WeatherDisplay:10.37 W/m2 BKN
23:14 52.7 °F 49.8 °F 30.06 in Calm     90% 0.00 in WeatherDisplay:10.37 W/m2 BKN
23:19 52.8 °F 49.9 °F 30.06 in Calm     90% 0.00 in WeatherDisplay:10.37 W/m2 BKN
23:24 52.5 °F 49.4 °F 30.06 in Calm     89% 0.00 in WeatherDisplay:10.37 W/m2 BKN
23:29 52.2 °F 49.1 °F 30.06 in Calm     89% 0.00 in WeatherDisplay:10.37 W/m2 BKN
23:34 52.2 °F 49.4 °F 30.06 in Calm     90% 0.00 in WeatherDisplay:10.37 W/m2 BKN
23:39 52.0 °F 48.9 °F 30.06 in Calm     89% 0.00 in WeatherDisplay:10.37 W/m2 BKN
23:45 51.8 °F 48.7 °F 30.06 in Calm     89% 0.00 in WeatherDisplay:10.37 W/m2 BKN
Piedmont Bend
Compliments of Weather Underground - 4 mb